Surface/Precipitation History
11/26/2014 06:00  to  11/27/2014 06:00
Change End Date:
Date/Time
(MST)
Sf
Temp Chem Water Layer Surface Precipitation
Sf Sub Frz Factor Pct Depth IcePct Cond Salin Type Intens Accum Rate
11/27/2014 05:31 Ice Warning 30.7F - 32F 25 0% - 100% 1 mhos 0 None None - -
11/27/2014 05:28 Ice Warning 30.9F - 32F 25 0% - 100% 1 mhos 0 None None - -
11/27/2014 05:18 Ice Warning 30.7F - 32F 30 0% - 100% 1 mhos 0 None None - -
11/27/2014 05:08 Ice Warning 30.9F - 32F 30 0% - 100% 1 mhos 0 None None - -
11/27/2014 05:01 Ice Warning 30.9F - 32F 30 0% - 100% 1 mhos 0 None None - -
11/27/2014 04:58 Ice Warning 30.9F - 32F 30 0% - 100% 1 mhos 0 None None - -
11/27/2014 04:48 Ice Warning 30.9F - 32F 30 0% - 100% 1 mhos 0 None None - -
11/27/2014 04:37 Ice Warning 30.9F - 32F 30 0% - 100% 1 mhos 0 None None - -
11/27/2014 04:31 Ice Warning 30.7F - 32F 30 0% - 100% 1 mhos 0 None None - -
11/27/2014 04:27 Ice Warning 30.7F - 32F 30 0% - 100% 1 mhos 0 None None - -
11/27/2014 04:17 Ice Warning 30.9F - 32F 30 0% - 100% 1 mhos 0 None None - -
11/27/2014 04:07 Ice Warning 30.9F - 32F 30 0% - 100% 1 mhos 0 None None - -
11/27/2014 04:00 Ice Warning 30.7F - 32F 30 0% - 100% 1 mhos 0 None None - -
11/27/2014 03:57 Ice Warning 30.9F - 32F 35 0% - 100% 1 mhos 0 None None - -
11/27/2014 03:47 Ice Warning 30.7F - 32F 30 0% - 100% 1 mhos 0 None None - -
Date/Time
(MST)
Sf
Temp Chem Water Layer Surface Precipitation
Sf Sub Frz Factor Pct Depth IcePct Cond Salin Type Intens Accum Rate
11/27/2014 03:37 Ice Warning 30.9F - 32F 30 0% - 100% 1 mhos 0 None None - -
11/27/2014 03:31 Ice Warning 30.7F - 32F 30 0% - 100% 1 mhos 0 None None - -
11/27/2014 03:27 Ice Warning 30.7F - 32F 30 0% - 100% 1 mhos 0 None None - -
11/27/2014 03:17 Ice Warning 30.7F - 32F 30 0% - 100% 1 mhos 0 None None - -
11/27/2014 03:07 Ice Warning 30.7F - 32F 35 0% - 100% 1 mhos 0 None None - -
11/27/2014 03:01 Ice Warning 30.9F - 32F 35 0% - 100% 1 mhos 0 None None - -
11/27/2014 02:57 Ice Warning 30.9F - 32F 35 0% - 100% 1 mhos 0 None None - -
11/27/2014 02:47 Ice Warning 31.1F - 32F 35 0% - 100% 1 mhos 0 None None - -
11/27/2014 02:37 Ice Warning 31.1F - 32F 35 0% - 100% 1 mhos 0 None None - -
11/27/2014 02:31 Ice Warning 30.9F - 32F 30 0% - 100% 1 mhos 0 None None - -
11/27/2014 02:27 Ice Warning 30.9F - 32F 30 0% - 100% 1 mhos 0 None None - -
11/27/2014 02:17 Ice Warning 30.9F - 32F 35 0% - 100% 1 mhos 0 None None - -
11/27/2014 02:06 Ice Warning 30.9F - 32F 30 0% - 100% 1 mhos 0 None None - -
11/27/2014 02:01 Ice Warning 30.9F - 32F 35 0% - 100% 1 mhos 0 None None - -
11/27/2014 01:56 Ice Warning 30.9F - 32F 35 0% - 100% 1 mhos 0 None None - -
Date/Time
(MST)
Sf
Temp Chem Water Layer Surface Precipitation
Sf Sub Frz Factor Pct Depth IcePct Cond Salin Type Intens Accum Rate
11/27/2014 01:46 Ice Warning 30.9F - 32F 35 0% - 100% 1 mhos 0 None None - -
11/27/2014 01:36 Ice Warning 30.9F - 32F 35 0% - 100% 1 mhos 0 None None - -
11/27/2014 01:31 Ice Warning 30.9F - 32F 35 0% - 100% 1 mhos 0 None None - -
11/27/2014 01:26 Ice Warning 30.9F - 32F 35 0% - 100% 1 mhos 0 None None - -
11/27/2014 01:16 Ice Warning 30.7F - 32F 30 0% - 100% 1 mhos 0 None None - -
11/27/2014 01:06 Ice Warning 30.9F - 32F 30 0% - 100% 1 mhos 0 None None - -
11/27/2014 01:01 Ice Warning 30.9F - 32F 30 0% - 100% 1 mhos 0 None None - -
11/27/2014 00:56 Ice Warning 30.9F - 32F 30 0% - 100% 1 mhos 0 None None - -
11/27/2014 00:46 Ice Warning 31.1F - 32F 30 0% - 100% 1 mhos 0 None None - -
11/27/2014 00:36 Ice Warning 31.1F - 32F 30 0% - 100% 1 mhos 0 None None - -
11/27/2014 00:31 Ice Warning 31.1F - 32F 30 0% - 100% 1 mhos 0 None None - -
11/27/2014 00:26 Ice Warning 31.3F - 32F 30 0% - 100% 1 mhos 0 None None - -
11/27/2014 00:16 Ice Warning 31.3F - 32F 30 0% - 100% 1 mhos 0 None None - -
11/27/2014 00:06 Ice Warning 31.3F - 32F 35 0% - 100% 1 mhos 0 None None - -
11/26/2014 23:58 Ice Warning 31.3F - 32F 25 0% - 100% 1 mhos 0 None None - -
Date/Time
(MST)
Sf
Temp Chem Water Layer Surface Precipitation
Sf Sub Frz Factor Pct Depth IcePct Cond Salin Type Intens Accum Rate
11/26/2014 23:56 Ice Warning 31.3F - 32F 25 0% - 100% 1 mhos 0 None None - -
11/26/2014 23:46 Ice Warning 31.5F - 32F 35 0% - 100% 2 mhos 0 None None - -
11/26/2014 23:35 Ice Warning 31.5F - 32F 20 0% - 100% 2 mhos 0 None None - -
11/26/2014 23:31 Ice Warning 31.5F - 32F 20 0% - 100% 2 mhos 0 None None - -
11/26/2014 23:25 Ice Warning 31.5F - 32F 20 0% - 100% 2 mhos 0 None None - -
11/26/2014 23:15 Ice Warning 31.5F - 32F 25 0% - 100% 2 mhos 0 None None - -
11/26/2014 23:05 Ice Warning 31.6F - 32F 25 0% - 100% 2 mhos 0 None None - -
11/26/2014 23:01 Ice Warning 31.8F - 32F 25 0% - 100% 2 mhos 0 None None - -
11/26/2014 22:55 Ice Warning 31.6F - 32F 25 0% - 100% 2 mhos 0 None None - -
11/26/2014 22:45 Wet 32.2F - 32F 25 0% 0.00 in 0% 2 mhos 0 None None - -
11/26/2014 22:35 Ice Warning 32.0F - 32F 25 0% - 100% 2 mhos 0 None None - -
11/26/2014 22:31 Ice Warning 32.0F - 32F 30 0% - 100% 2 mhos 0 None None - -
11/26/2014 22:25 Wet 32.2F - 32F 30 0% 0.00 in 0% 2 mhos 0 None None - -
11/26/2014 22:15 Wet 32.4F - 32F 25 0% 0.00 in 0% 2 mhos 0 None None - -
11/26/2014 22:05 Wet 32.4F - 32F 30 0% 0.00 in 0% 2 mhos 0 None None - -
Date/Time
(MST)
Sf
Temp Chem Water Layer Surface Precipitation
Sf Sub Frz Factor Pct Depth IcePct Cond Salin Type Intens Accum Rate
11/26/2014 22:01 Wet 32.4F - 32F 30 0% 0.00 in 0% 2 mhos 0 None None - -
11/26/2014 21:55 Wet 32.5F - 32F 30 0% 0.00 in 0% 2 mhos 0 None None - -
11/26/2014 21:45 Wet 32.5F - 32F 25 0% 0.00 in 0% 2 mhos 0 None None - -
11/26/2014 21:35 Wet 32.5F - 32F 25 0% 0.00 in 0% 2 mhos 0 None None - -
11/26/2014 21:31 Wet 32.5F - 32F 25 0% 0.00 in 0% 2 mhos 0 None None - -
11/26/2014 21:25 Wet 32.7F - 32F 25 0% 0.00 in 0% 2 mhos 0 None None - -
11/26/2014 21:15 Wet 32.7F - 32F 30 0% 0.00 in 0% 2 mhos 0 None None - -
11/26/2014 21:04 Wet 32.5F - 32F 15 0% 0.00 in 0% 2 mhos 0 None None - -
11/26/2014 21:01 Wet 32.5F - 32F 15 0% 0.00 in 0% 2 mhos 0 None None - -
11/26/2014 20:54 Wet 32.5F - 32F 10 0% 0.00 in 0% 2 mhos 0 None None - -
11/26/2014 20:44 Wet 32.4F - 32F 10 0% 0.00 in 0% 2 mhos 0 None None - -
11/26/2014 20:34 Wet 32.4F - 32F 10 0% 0.00 in 0% 2 mhos 0 None None - -
11/26/2014 20:31 Wet 32.5F - 32F 15 0% 0.00 in 0% 2 mhos 0 None None - -
11/26/2014 20:24 Wet 32.5F - 32F 10 0% 0.00 in 0% 2 mhos 0 None None - -
11/26/2014 20:14 Wet 32.7F - 32F 15 0% 0.00 in 0% 2 mhos 0 None None - -
Date/Time
(MST)
Sf
Temp Chem Water Layer Surface Precipitation
Sf Sub Frz Factor Pct Depth IcePct Cond Salin Type Intens Accum Rate
11/26/2014 20:04 Wet 32.7F - 32F 10 0% 0.00 in 0% 2 mhos 0 None None - -
11/26/2014 20:01 Wet 32.7F - 32F 15 0% 0.00 in 0% 2 mhos 0 None None - -
11/26/2014 19:54 Wet 32.7F - 32F 15 0% 0.00 in 0% 2 mhos 0 None None - -
11/26/2014 19:44 Wet 32.9F - 32F 15 0% 0.00 in 0% 2 mhos 0 None None - -
11/26/2014 19:34 Wet 32.9F - 32F 10 0% 0.00 in 0% 2 mhos 0 None None - -
11/26/2014 19:24 Wet 32.7F - 32F 15 0% 0.00 in 0% 2 mhos 0 None None - -
11/26/2014 19:14 Wet 33.1F - 32F 15 0% 0.00 in 0% 2 mhos 0 None None - -
11/26/2014 19:04 Wet 32.9F - 32F 5 0% 0.00 in 0% 2 mhos 0 None None - -
11/26/2014 19:00 Wet 32.9F - 32F 5 0% 0.00 in 0% 2 mhos 0 None None - -
11/26/2014 18:54 Wet 32.9F - 32F 5 0% 0.00 in 0% 2 mhos 0 None None - -
11/26/2014 18:44 Wet 33.1F - 32F 10 0% 0.00 in 0% 2 mhos 0 None None - -
11/26/2014 18:34 Wet 33.1F - 32F 10 0% 0.00 in 0% 2 mhos 0 None None - -
11/26/2014 18:31 Wet 33.1F - 32F 10 0% 0.00 in 0% 2 mhos 0 None None - -
11/26/2014 18:24 Wet 33.3F - 32F 15 0% 0.00 in 0% 2 mhos 0 None None - -
11/26/2014 18:14 Wet 32.9F - 32F 10 0% 0.00 in 0% 2 mhos 0 None None - -
Date/Time
(MST)
Sf
Temp Chem Water Layer Surface Precipitation
Sf Sub Frz Factor Pct Depth IcePct Cond Salin Type Intens Accum Rate
11/26/2014 18:03 Wet 33.3F - 32F 10 0% 0.00 in 0% 2 mhos 0 None None - -
11/26/2014 18:01 Wet 33.3F - 32F 10 0% 0.00 in 0% 2 mhos 0 None None - -
11/26/2014 17:53 Wet 33.3F - 32F 5 0% 0.00 in 0% 2 mhos 0 None None - -
11/26/2014 17:43 Wet 33.3F - 32F 10 0% 0.00 in 0% 2 mhos 0 None None - -
11/26/2014 17:33 Wet 33.3F - 32F 10 0% 0.00 in 0% 2 mhos 0 None None - -
11/26/2014 17:31 Wet 33.3F - 32F 10 0% 0.00 in 0% 2 mhos 0 None None - -
11/26/2014 17:23 Wet 33.1F - 32F 10 0% 0.00 in 0% 2 mhos 0 None None - -
11/26/2014 17:13 Wet 33.4F - 32F 10 0% 0.00 in 0% 2 mhos 0 None None - -
11/26/2014 17:03 Wet 33.3F - 32F 15 0% 0.00 in 0% 2 mhos 0 None None - -
11/26/2014 17:01 Wet 33.4F - 32F 15 0% 0.00 in 0% 2 mhos 0 None None - -
11/26/2014 16:53 Wet 33.3F - 32F 10 0% 0.00 in 0% 2 mhos 0 None None - -
11/26/2014 16:43 Wet 33.4F - 32F 15 0% 0.00 in 0% 1 mhos 0 None None - -
11/26/2014 16:33 Wet 34.0F - 32F 10 0% 0.00 in 0% 1 mhos 0 None None - -
11/26/2014 16:31 Wet 34.0F - 32F 10 0% 0.00 in 0% 1 mhos 0 None None - -
11/26/2014 16:23 Wet 34.3F - 32F 25 0% 0.00 in 0% 2 mhos 0 None None - -
Date/Time
(MST)
Sf
Temp Chem Water Layer Surface Precipitation
Sf Sub Frz Factor Pct Depth IcePct Cond Salin Type Intens Accum Rate
11/26/2014 16:13 Wet 34.7F - 32F 10 0% 0.00 in 0% 2 mhos 0 None None - -
11/26/2014 16:03 Wet 35.4F - 32F 15 0% 0.00 in 0% 2 mhos 0 None None - -
11/26/2014 16:01 Wet 34.9F - 32F 10 0% 0.00 in 0% 2 mhos 0 None None - -
11/26/2014 15:53 Wet 35.8F - 32F 10 0% 0.00 in 0% 2 mhos 0 None None - -
11/26/2014 15:43 Wet 36.1F - 32F 15 0% 0.00 in 0% 2 mhos 0 None None - -
11/26/2014 15:32 Wet 36.7F - 32F 25 0% 0.00 in 0% 2 mhos 0 None None - -
11/26/2014 15:22 Wet 37.2F - 32F 20 0% 0.00 in 0% 2 mhos 0 None None - -
11/26/2014 15:12 Wet 37.2F - 32F 35 0% 0.00 in 0% 2 mhos 0 None None - -
11/26/2014 15:02 Wet 37.4F - 32F 25 0% 0.00 in 0% 2 mhos 0 None None - -
11/26/2014 14:52 Wet 37.4F - 32F 15 0% 0.00 in 0% 2 mhos 0 None None - -
11/26/2014 14:42 Wet 37.2F - 32F 15 0% 0.00 in 0% 2 mhos 0 None None - -
11/26/2014 14:32 Wet 36.5F - 32F 20 0% 0.00 in 0% 2 mhos 0 None None - -
11/26/2014 14:22 Wet 36.0F - 32F 35 0% 0.00 in 0% 2 mhos 0 None None - -
11/26/2014 14:12 Wet 35.6F - 32F 35 0% 0.00 in 0% 1 mhos 0 None None - -
11/26/2014 14:02 Wet 35.1F - 32F 15 0% 0.00 in 0% 2 mhos 0 None None - -
Date/Time
(MST)
Sf
Temp Chem Water Layer Surface Precipitation
Sf Sub Frz Factor Pct Depth IcePct Cond Salin Type Intens Accum Rate
11/26/2014 14:02 Wet 35.1F - 32F 15 0% 0.00 in 0% 2 mhos 0 None None - -
11/26/2014 13:52 Wet 35.1F - 32F 35 0% 0.00 in 0% 2 mhos 0 None None - -
11/26/2014 13:31 Wet 34.9F - 32F 30 0% 0.00 in 0% 1 mhos 0 None None - -
11/26/2014 13:22 Wet 34.9F - 32F 30 0% 0.00 in 0% 1 mhos 0 None None - -
11/26/2014 13:12 Wet 34.9F - 32F 60 0% 0.00 in 0% 2 mhos 0 None None - -
11/26/2014 13:02 Wet 34.9F - 32F 50 0% 0.00 in 0% 1 mhos 0 None None - -
11/26/2014 13:01 Wet 34.9F - 32F 75 0% 0.00 in 0% 1 mhos 0 None None - -
11/26/2014 12:51 Wet 34.9F - 32F 60 0% 0.00 in 0% 1 mhos 0 None None - -
11/26/2014 12:41 Wet 34.7F - 32F 70 0% 0.00 in 0% 1 mhos 0 None None - -
11/26/2014 12:31 Wet 34.5F - 32F 60 0% 0.00 in 0% 1 mhos 0 None None - -
11/26/2014 12:21 Wet 35.6F - 32F 95 0% 0.00 in 0% 2 mhos 0 None None - -
11/26/2014 12:11 Wet 36.1F - 32F 95 0% 0.00 in 0% 1 mhos 0 None None - -
11/26/2014 12:01 Wet 36.7F - 32F 95 0% 0.00 in 0% 2 mhos 0 None None - -
11/26/2014 12:01 Wet 36.7F - 32F 95 0% 0.00 in 0% 2 mhos 0 None None - -
11/26/2014 11:51 Wet 36.7F - 32F 95 0% 0.00 in 0% 2 mhos 0 None None - -
Date/Time
(MST)
Sf
Temp Chem Water Layer Surface Precipitation
Sf Sub Frz Factor Pct Depth IcePct Cond Salin Type Intens Accum Rate
11/26/2014 11:41 Wet 36.0F - 32F 95 0% 0.00 in 0% 2 mhos 0 None None - -
11/26/2014 11:31 Wet 35.2F - 32F 95 0% 0.00 in 0% 2 mhos 0 None None - -
11/26/2014 11:31 Wet 35.2F - 32F 95 0% 0.00 in 0% 2 mhos 0 None None - -
11/26/2014 11:21 Wet 34.5F - 32F 95 0% 0.00 in 0% 2 mhos 0 None None - -
11/26/2014 11:11 Wet 32.5F - 32F 95 0% 0.00 in 0% 1 mhos 0 None None - -
11/26/2014 11:01 Wet 32.2F - 32F 95 0% 0.00 in 0% 2 mhos 0 None None - -
11/26/2014 11:01 Wet 32.2F - 32F 95 0% 0.00 in 0% 2 mhos 0 None None - -
11/26/2014 10:51 Wet 32.2F - 32F 95 0% 0.00 in 0% 3 mhos 0 None None - -
11/26/2014 10:41 Ice Warning 31.6F - 32F 95 0% - 100% 3 mhos 0 None None - -
11/26/2014 10:31 Ice Warning 31.6F - 32F 95 0% - 100% 4 mhos 0 None None - -
11/26/2014 10:31 Ice Warning 31.6F - 32F 95 0% - 100% 4 mhos 0 None None - -
11/26/2014 10:20 Ice Warning 31.5F - 32F 95 0% - 100% 1 mhos 0 None None - -
11/26/2014 10:10 Ice Warning 31.5F - 32F 65 0% - 100% 1 mhos 0 None None - -
11/26/2014 10:01 Ice Warning 31.3F - 32F 95 0% - 100% 1 mhos 0 None None - -
11/26/2014 10:00 Ice Warning 31.3F - 32F 95 0% - 100% 1 mhos 0 None None - -
Date/Time
(MST)
Sf
Temp Chem Water Layer Surface Precipitation
Sf Sub Frz Factor Pct Depth IcePct Cond Salin Type Intens Accum Rate
11/26/2014 09:50 Ice Warning 31.1F - 32F 95 0% - 100% 1 mhos 0 None None - -
11/26/2014 09:40 Ice Warning 30.9F - 32F 95 0% - 100% 1 mhos 0 None None - -
11/26/2014 09:31 Ice Warning 30.7F - 32F 95 0% - 100% 0 mhos 0 None None - -
11/26/2014 09:30 Ice Warning 30.7F - 32F 95 0% - 100% 0 mhos 0 None None - -
11/26/2014 09:20 Ice Warning 30.6F - 32F 95 0% - 100% 0 mhos 0 None None - -
11/26/2014 09:10 Ice Warning 30.4F - 32F 20 0% - 100% 0 mhos 0 None None - -
11/26/2014 09:00 Ice Warning 30.4F - 32F 20 0% - 100% 0 mhos 0 None None - -
11/26/2014 08:50 Ice Warning 30.2F - 32F 25 0% - 100% 0 mhos 0 None None - -
11/26/2014 08:40 Ice Warning 29.8F - 32F 25 0% - 100% 0 mhos 0 None None - -
11/26/2014 08:31 Ice Warning 30.0F - 32F 5 0% - 100% 0 mhos 0 None None - -
11/26/2014 08:30 Ice Warning 29.8F - 32F 10 0% - 100% 0 mhos 0 None None - -
11/26/2014 08:20 Ice Warning 29.8F - 32F 5 0% - 100% 0 mhos 0 None None - -
11/26/2014 08:10 Ice Warning 29.8F - 32F 5 0% - 100% 0 mhos 0 None None - -
11/26/2014 08:00 Ice Warning 29.7F - 32F 5 0% - 100% 0 mhos 0 None None - -
11/26/2014 07:50 Ice Warning 29.3F - 32F 5 0% - 100% 0 mhos 0 None None - -
Date/Time
(MST)
Sf
Temp Chem Water Layer Surface Precipitation
Sf Sub Frz Factor Pct Depth IcePct Cond Salin Type Intens Accum Rate
11/26/2014 07:41 Ice Warning 29.3F - 32F 5 0% - 100% 0 mhos 0 None None - -
11/26/2014 07:39 Ice Warning 29.5F - 32F 5 0% - 100% 0 mhos 0 None None - -
11/26/2014 07:30 Ice Warning 29.3F - 32F 5 0% - 100% 0 mhos 0 None None - -
11/26/2014 07:29 Ice Warning 29.1F - 32F 5 0% - 100% 0 mhos 0 None None - -
11/26/2014 07:19 Ice Warning 29.1F - 32F 10 0% - 100% 0 mhos 0 None None - -
11/26/2014 07:09 Ice Warning 28.9F - 32F 10 0% - 100% 0 mhos 0 None None - -
11/26/2014 07:01 Ice Warning 28.8F - 32F 10 0% - 100% 0 mhos 0 None None - -
11/26/2014 06:59 Ice Warning 28.8F - 32F 10 0% - 100% 0 mhos 0 None None - -
11/26/2014 06:49 Ice Warning 28.6F - 32F 10 0% - 100% 0 mhos 0 None None - -
11/26/2014 06:39 Ice Warning 28.8F - 32F 10 0% - 100% 0 mhos 0 None None - -
11/26/2014 06:30 Ice Warning 28.8F - 32F 10 0% - 100% 0 mhos 0 None None - -
11/26/2014 06:29 Ice Warning 28.8F - 32F 10 0% - 100% 0 mhos 0 None None - -
11/26/2014 06:19 Ice Warning 28.8F - 32F 10 0% - 100% 0 mhos 0 None None - -
11/26/2014 06:09 Ice Warning 28.9F - 32F 10 0% - 100% 0 mhos 0 None None - -
11/26/2014 06:01 Ice Warning 29.1F - 32F 10 0% - 100% 0 mhos 0 None None - -
Change End Date:
Copyright © 1998-2005 Surface Systems, Inc.
All Rights Reserved
Send comments about the data to:
SCAN Web ® is a registered trademark of Surface Systems, Inc.
SCAN Web Version 5.6